FW0323 Weather Reports


Display with metric or nautical units.
time (UTC)temp
F
wind
direction
speed
MPH
gust
MPH
rain 1hr
in
rain 24hr
in
rain mn
in
humidity
%
barometer
mb
20260906120020 55 240 0.0 0.0 0.00 0.09 0.07 97 1018.7
20260906114534 54 240 0.0 0.0 0.00 0.09 0.07 97 1018.6
20260906113017 54 240 0.0 1.0 0.00 0.09 0.07 97 1018.5
20260906111616 53 240 0.0 1.0 0.00 0.09 0.07 97 1018.4
20260906110014 53 240 0.0 0.0 0.00 0.09 0.07 97 1018.2
20260906104514 54 240 0.0 1.0 0.00 0.09 0.07 97 1018.1
20260906103012 54 240 0.0 0.0 0.00 0.09 0.07 97 1018.0
20260906101514 54 240 0.0 0.0 0.01 0.09 0.07 97 1018.1
20260906100010 53 240 0.0 0.0 0.07 0.09 0.07 96 1018.1
20260906094510 53 240 0.0 0.0 0.07 0.09 0.07 96 1018.0
20260906093006 54 240 0.0 1.0 0.07 0.09 0.07 96 1017.8
20260906091514 54 207 0.0 1.0 0.05 0.07 0.05 95 1017.6
20260906090004 54 208 0.0 1.0 0.00 0.02 0.00 95 1017.6
20260906084502 53 208 0.0 0.0 0.00 0.02 0.00 96 1017.3
20260906083102 53 207 0.0 1.0 0.00 0.02 0.00 96 1017.3
20260906081601 52 208 0.0 1.0 0.00 0.02 0.00 96 1017.1
20260906080106 52 208 0.0 1.0 0.00 0.02 0.00 96 1017.0
20260906074557 52 207 0.0 0.0 0.00 0.02 0.00 96 1017.1
20260906073057 52 207 0.0 0.0 0.00 0.02 0.00 96 1017.2
20260906071603 52 207 0.0 0.0 0.00 0.02 0.00 95 1017.1
20260906070054 53 207 0.0 1.0 0.00 0.02 0.00 95 1017.1
20260906064555 52 208 0.0 1.0 0.00 0.02 0.00 96 1017.2
20260906063053 51 208 0.0 1.0 0.00 0.02 0.00 95 1016.9
20260906061552 52 210 0.0 1.0 0.00 0.02 0.00 95 1016.9
20260906060120 53 210 0.0 1.0 0.00 0.02 0.00 95 1016.9
20260906054548 52 211 0.0 1.0 0.00 0.02 0.00 95 1016.8
20260906053048 53 210 0.0 1.0 0.00 0.02 0.00 95 1016.9
20260906051547 52 210 0.0 0.0 0.00 0.02 0.00 95 1016.9
20260906050050 52 210 0.0 0.0 0.00 0.02 0.00 94 1016.9
20260906044544 53 210 0.0 1.0 0.00 0.02 0.00 94 1017.0
20260906043041 53 211 0.0 1.0 0.00 0.02 0.00 93 1017.1
20260906041539 54 210 0.0 1.0 0.00 0.02 0.00 92 1017.1
20260906040038 54 211 0.0 0.0 0.00 0.02 0.00 91 1017.1
20260906034536 55 211 0.0 0.0 0.00 0.02 0.02 90 1016.9
20260906033034 56 211 0.0 0.0 0.00 0.02 0.02 88 1016.8
20260906031553 56 211 0.0 0.0 0.00 0.02 0.02 86 1016.8
20260906030027 57 211 0.0 0.0 0.00 0.02 0.02 84 1016.7
20260906024527 58 211 0.0 1.0 0.00 0.02 0.02 81 1016.6
20260906023025 58 211 0.0 1.0 0.00 0.02 0.02 81 1016.7
20260906021525 59 349 0.0 1.0 0.00 0.02 0.02 81 1016.6
20260906020024 59 349 0.0 1.0 0.00 0.02 0.02 80 1016.5
20260906014526 60 350 0.0 0.0 0.00 0.02 0.02 78 1016.5
20260906013022 61 349 0.0 1.0 0.00 0.02 0.02 77 1016.5
20260906011523 61 18 0.0 2.0 0.00 0.02 0.02 78 1016.5
20260906010121 61 113 0.0 1.0 0.00 0.02 0.02 80 1016.5
20260906004519 60 113 0.0 0.0 0.00 0.02 0.02 79 1016.4
20260906003022 60 49 0.0 3.0 0.00 0.02 0.02 82 1016.2
20260906001518 59 279 0.0 1.0 0.00 0.02 0.02 86 1016.3
20260906000018 60 279 0.0 0.0 0.00 0.02 0.02 83 1016.1
20260905234513 61 279 0.0 0.0 0.00 0.02 0.02 81 1015.9
20260905233017 62 279 0.0 1.0 0.00 0.02 0.02 79 1015.9
20260905231513 63 279 0.0 1.0 0.00 0.02 0.02 76 1015.8
20260905230011 64 28 0.0 1.0 0.00 0.02 0.02 74 1015.5
20260905224512 65 25 0.0 1.0 0.00 0.02 0.02 72 1015.6
20260905223009 66 333 0.0 1.0 0.00 0.02 0.02 71 1015.5
20260905221507 66 348 0.0 3.0 0.00 0.02 0.02 70 1015.2
20260905220005 67 360 1.0 4.0 0.00 0.02 0.02 67 1015.0
20260905214503 66 11 0.0 4.0 0.00 0.02 0.02 65 1014.6
20260905213004 67 9 0.0 1.0 0.00 0.02 0.02 65 1014.5
20260905211501 68 328 0.0 4.0 0.00 0.02 0.02 63 1014.3
20260905210108 68 204 0.0 5.0 0.00 0.02 0.02 60 1014.3
20260905204601 68 27 0.0 2.0 0.00 0.02 0.02 66 1014.3
20260905203100 69 87 0.0 4.0 0.00 0.02 0.02 66 1014.1
20260905201559 69 79 0.0 6.0 0.00 0.02 0.02 66 1014.1
20260905200124 70 321 1.0 9.0 0.00 0.02 0.02 63 1014.0
20260905194556 69 114 0.0 2.0 0.00 0.02 0.02 67 1014.0
20260905193055 70 78 1.0 9.0 0.00 0.02 0.02 64 1014.0
20260905191555 70 122 1.0 6.0 0.00 0.02 0.02 62 1013.7
20260905190056 71 330 2.0 4.0 0.00 0.02 0.02 64 1013.8
20260905184552 70 323 0.0 4.0 0.00 0.02 0.02 67 1013.9
20260905183051 70 30 0.0 3.0 0.00 0.02 0.02 67 1013.8
20260905181551 70 41 0.0 3.0 0.00 0.02 0.02 68 1013.9
20260905180109 69 143 2.0 7.0 0.00 0.02 0.02 68 1014.0
20260905174545 68 62 1.0 7.0 0.00 0.02 0.02 71 1014.3
20260905173101 66 96 1.0 5.0 0.00 0.02 0.02 75 1014.3
20260905171551 66 68 0.0 3.0 0.00 0.02 0.02 77 1014.1
20260905170040 66 128 0.0 3.0 0.00 0.02 0.02 78 1014.3
20260905164543 65 64 0.0 2.0 0.00 0.02 0.02 79 1014.4
20260905163038 65 64 0.0 4.0 0.00 0.02 0.02 80 1014.4
20260905161536 65 64 1.0 3.0 0.00 0.02 0.02 81 1014.3
20260905160050 66 2 1.0 5.0 0.00 0.02 0.02 83 1014.2
20260905154538 65 44 2.0 7.0 0.01 0.02 0.02 83 1014.1
20260905153035 65 15 1.0 4.0 0.02 0.02 0.02 86 1014.1
20260905151532 64 40 0.0 3.0 0.02 0.02 0.02 91 1014.2
20260905150030 64 262 0.0 3.0 0.02 0.02 0.02 93 1014.0
20260905144530 64 98 0.0 4.0 0.01 0.01 0.01 89 1014.0
20260905143029 66 10 0.0 3.0 0.00 0.00 0.00 82 1013.7
20260905141525 65 338 0.0 3.0 0.00 0.00 0.00 84 1013.6
20260905140023 65 117 0.0 1.0 0.00 0.00 0.00 85 1013.5
20260905134520 64 50 1.0 2.0 0.00 0.00 0.00 85 1013.4
20260905133024 64 350 1.0 3.0 0.00 0.00 0.00 86 1013.4
20260905131516 63 91 1.0 3.0 0.00 0.00 0.00 88 1013.2
20260905130014 63 27 0.0 7.0 0.00 0.00 0.00 89 1013.1
20260905124513 62 37 0.0 2.0 0.00 0.00 0.00 90 1013.1
20260905123010 62 337 0.0 3.0 0.00 0.00 0.00 91 1012.9
20260905121509 61 44 0.0 1.0 0.00 0.00 0.00 92 1012.9